Time,TemperatureF,DewpointF,PressureIn,WindDirection,WindDirectionDegrees,WindSpeedMPH,WindSpeedGustMPH,Humidity,HourlyPrecipIn,Conditions,Clouds,dailyrainin,SoftwareType,DateUTC
2013-05-02 00:09:00,47.4,35.8,30.49,WNW,284,1.0,2.0,64,0.00,,,0.00,Wunderground PWS Mod,2013-05-02 07:09:00,
2013-05-02 00:20:00,47.4,36.2,30.49,WNW,284,0.0,1.0,65,0.00,,,0.00,Wunderground PWS Mod,2013-05-02 07:20:00,
2013-05-02 00:30:00,47.3,36.1,30.49,WNW,284,0.0,2.0,65,0.00,,,0.00,Wunderground PWS Mod,2013-05-02 07:30:00,
2013-05-02 00:40:00,47.1,36.3,30.49,WNW,284,1.0,2.0,66,0.00,,,0.00,Wunderground PWS Mod,2013-05-02 07:40:00,
2013-05-02 00:50:00,46.8,36.4,30.48,WNW,284,1.0,1.0,67,0.00,,,0.00,Wunderground PWS Mod,2013-05-02 07:50:00,
2013-05-02 00:59:00,46.7,36.7,30.48,WNW,284,1.0,2.0,68,0.00,,,0.00,Wunderground PWS Mod,2013-05-02 07:59:00,
2013-05-02 01:10:00,46.4,36.8,30.48,WNW,284,1.0,1.0,69,0.00,,,0.00,Wunderground PWS Mod,2013-05-02 08:10:00,
2013-05-02 01:20:00,46.1,36.9,30.48,WNW,284,1.0,1.0,70,0.00,,,0.00,Wunderground PWS Mod,2013-05-02 08:20:00,
2013-05-02 01:30:00,45.8,36.6,30.48,WNW,284,1.0,2.0,70,0.00,,,0.00,Wunderground PWS Mod,2013-05-02 08:30:00,
2013-05-02 01:40:00,45.7,36.8,30.48,WNW,284,1.0,2.0,71,0.00,,,0.00,Wunderground PWS Mod,2013-05-02 08:40:00,
2013-05-02 01:50:00,45.5,36.6,30.47,WNW,284,1.0,2.0,71,0.00,,,0.00,Wunderground PWS Mod,2013-05-02 08:50:00,
2013-05-02 02:00:00,45.7,36.8,30.47,WNW,284,1.0,2.0,71,0.00,,,0.00,Wunderground PWS Mod,2013-05-02 09:00:00,
2013-05-02 02:10:00,45.7,37.2,30.47,WNW,284,0.0,1.0,72,0.00,,,0.00,Wunderground PWS Mod,2013-05-02 09:10:00,
2013-05-02 02:20:00,45.8,37.3,30.47,WNW,284,0.0,1.0,72,0.00,,,0.00,Wunderground PWS Mod,2013-05-02 09:20:00,
2013-05-02 02:30:00,45.8,37.3,30.47,WNW,284,0.0,1.0,72,0.00,,,0.00,Wunderground PWS Mod,2013-05-02 09:30:00,
2013-05-02 02:40:00,45.8,37.6,30.47,WNW,284,0.0,0.0,73,0.00,,,0.00,Wunderground PWS Mod,2013-05-02 09:40:00,
2013-05-02 02:50:00,45.8,37.6,30.47,WNW,284,0.0,0.0,73,0.00,,,0.00,Wunderground PWS Mod,2013-05-02 09:50:00,
2013-05-02 03:00:00,45.8,37.6,30.47,WNW,284,0.0,0.0,73,0.00,,,0.00,Wunderground PWS Mod,2013-05-02 10:00:00,
2013-05-02 03:10:00,45.8,37.6,30.47,WNW,284,0.0,0.0,73,0.00,,,0.00,Wunderground PWS Mod,2013-05-02 10:10:00,
2013-05-02 03:20:00,45.7,37.2,30.46,WNW,284,0.0,0.0,72,0.00,,,0.00,Wunderground PWS Mod,2013-05-02 10:20:00,
2013-05-02 03:29:00,45.5,37.0,30.46,WNW,284,0.0,0.0,72,0.00,,,0.00,Wunderground PWS Mod,2013-05-02 10:29:00,
2013-05-02 03:39:00,45.2,36.7,30.46,WNW,284,0.0,0.0,72,0.00,,,0.00,Wunderground PWS Mod,2013-05-02 10:39:00,
2013-05-02 03:49:00,44.9,36.8,30.45,WNW,284,0.0,0.0,73,0.00,,,0.00,Wunderground PWS Mod,2013-05-02 10:49:00,
2013-05-02 03:59:00,44.6,36.5,30.45,WNW,284,0.0,0.0,73,0.00,,,0.00,Wunderground PWS Mod,2013-05-02 10:59:00,
2013-05-02 04:10:00,44.2,36.8,30.45,WNW,284,0.0,1.0,75,0.00,,,0.00,Wunderground PWS Mod,2013-05-02 11:10:00,
2013-05-02 04:19:00,43.8,36.4,30.44,WNW,284,1.0,1.0,75,0.00,,,0.00,Wunderground PWS Mod,2013-05-02 11:19:00,
2013-05-02 04:29:00,43.5,36.4,30.44,WNW,284,1.0,2.0,76,0.00,,,0.00,Wunderground PWS Mod,2013-05-02 11:29:00,
2013-05-02 04:39:00,43.5,36.4,30.44,WNW,284,0.0,1.0,76,0.00,,,0.00,Wunderground PWS Mod,2013-05-02 11:39:00,
2013-05-02 04:49:00,43.5,36.4,30.44,WNW,284,0.0,0.0,76,0.00,,,0.00,Wunderground PWS Mod,2013-05-02 11:49:00,
2013-05-02 04:59:00,43.3,36.6,30.44,WNW,284,0.0,0.0,77,0.00,,,0.00,Wunderground PWS Mod,2013-05-02 11:59:00,
2013-05-02 05:09:00,43.2,36.5,30.44,WNW,284,0.0,1.0,77,0.00,,,0.00,Wunderground PWS Mod,2013-05-02 12:09:00,
2013-05-02 05:19:00,43.1,36.4,30.44,WNW,284,1.0,2.0,77,0.00,,,0.00,Wunderground PWS Mod,2013-05-02 12:19:00,
2013-05-02 05:30:00,42.9,36.5,30.44,WNW,284,0.0,0.0,78,0.00,,,0.00,Wunderground PWS Mod,2013-05-02 12:30:00,
2013-05-02 05:39:00,42.8,36.4,30.44,WNW,284,0.0,1.0,78,0.00,,,0.00,Wunderground PWS Mod,2013-05-02 12:39:00,
2013-05-02 05:49:00,42.5,36.4,30.44,WNW,284,1.0,2.0,79,0.00,,,0.00,Wunderground PWS Mod,2013-05-02 12:49:00,
2013-05-02 05:59:00,42.2,36.5,30.44,WNW,284,1.0,2.0,80,0.00,,,0.00,Wunderground PWS Mod,2013-05-02 12:59:00,
2013-05-02 06:10:00,42.1,37.0,30.43,WNW,284,0.0,1.0,82,0.00,,,0.00,Wunderground PWS Mod,2013-05-02 13:10:00,
2013-05-02 06:19:00,41.9,36.8,30.43,WNW,284,0.0,2.0,82,0.00,,,0.00,Wunderground PWS Mod,2013-05-02 13:19:00,
2013-05-02 06:29:00,41.9,37.1,30.43,WNW,284,0.0,1.0,83,0.00,,,0.00,Wunderground PWS Mod,2013-05-02 13:29:00,
2013-05-02 06:39:00,41.9,37.4,30.43,WNW,284,0.0,1.0,84,0.00,,,0.00,Wunderground PWS Mod,2013-05-02 13:39:00,
2013-05-02 06:49:00,42.1,37.6,30.43,WNW,284,0.0,2.0,84,0.00,,,0.00,Wunderground PWS Mod,2013-05-02 13:49:00,
2013-05-02 06:59:00,42.2,37.4,30.43,WNW,284,0.0,1.0,83,0.00,,,0.00,Wunderground PWS Mod,2013-05-02 13:59:00,
2013-05-02 07:00:00,43.5,38.7,30.43,N/A,-737280,0.0,0.0,83,0.00,,,0.00,Wunderground PWS Mod,2013-05-02 14:00:00,
2013-05-02 07:09:00,42.3,37.5,30.43,WNW,284,0.0,0.0,83,0.00,,,0.00,Wunderground PWS Mod,2013-05-02 14:09:00,
2013-05-02 07:19:00,42.6,37.5,30.43,WNW,284,0.0,0.0,82,0.00,,,0.00,Wunderground PWS Mod,2013-05-02 14:19:00,
2013-05-02 07:29:00,42.8,37.7,30.43,WNW,284,0.0,0.0,82,0.00,,,0.00,Wunderground PWS Mod,2013-05-02 14:29:00,
2013-05-02 07:40:00,42.9,37.8,30.43,WNW,284,0.0,0.0,82,0.00,,,0.00,Wunderground PWS Mod,2013-05-02 14:40:00,
2013-05-02 07:49:00,43.2,38.4,30.43,WNW,284,0.0,0.0,83,0.00,,,0.00,Wunderground PWS Mod,2013-05-02 14:49:00,
2013-05-02 07:59:00,43.3,38.5,30.43,WNW,284,0.0,0.0,83,0.00,,,0.00,Wunderground PWS Mod,2013-05-02 14:59:00,
2013-05-02 08:09:00,43.6,38.8,30.43,WNW,284,0.0,0.0,83,0.00,,,0.00,Wunderground PWS Mod,2013-05-02 15:09:00,
2013-05-02 08:20:00,44.1,39.0,30.43,WNW,284,0.0,0.0,82,0.00,,,0.00,Wunderground PWS Mod,2013-05-02 15:20:00,
2013-05-02 08:30:00,44.5,39.3,30.43,WNW,284,0.0,0.0,82,0.00,,,0.00,Wunderground PWS Mod,2013-05-02 15:30:00,
2013-05-02 08:40:00,44.9,39.7,30.43,WNW,284,0.0,2.0,82,0.00,,,0.00,Wunderground PWS Mod,2013-05-02 15:40:00,
2013-05-02 08:49:00,45.7,39.9,30.43,WNW,284,0.0,1.0,80,0.00,,,0.00,Wunderground PWS Mod,2013-05-02 15:49:00,
2013-05-02 09:00:00,46.5,38.0,30.43,WNW,284,1.0,3.0,72,0.00,,,0.00,Wunderground PWS Mod,2013-05-02 16:00:00,
2013-05-02 09:10:00,47.9,37.8,30.43,NW,304,1.0,3.0,68,0.00,,,0.00,Wunderground PWS Mod,2013-05-02 16:10:00,
2013-05-02 09:20:00,49.1,37.8,30.41,NW,304,1.0,2.0,65,0.00,,,0.00,Wunderground PWS Mod,2013-05-02 16:20:00,
2013-05-02 09:29:00,49.9,38.2,30.41,NW,304,0.0,1.0,64,0.00,,,0.00,Wunderground PWS Mod,2013-05-02 16:29:00,
2013-05-02 09:40:00,51.0,38.4,30.41,NW,304,1.0,2.0,62,0.00,,,0.00,Wunderground PWS Mod,2013-05-02 16:40:00,
2013-05-02 09:50:00,51.9,38.4,30.41,WNW,288,1.0,4.0,60,0.00,,,0.00,Wunderground PWS Mod,2013-05-02 16:50:00,
2013-05-02 10:00:00,52.6,37.8,30.41,NW,304,1.0,3.0,57,0.00,,,0.00,Wunderground PWS Mod,2013-05-02 17:00:00,
2013-05-02 10:10:00,53.2,38.8,30.41,WNW,299,1.0,3.0,58,0.00,,,0.00,Wunderground PWS Mod,2013-05-02 17:10:00,
2013-05-02 10:20:00,53.6,40.5,30.41,WNW,284,0.0,3.0,61,0.00,,,0.00,Wunderground PWS Mod,2013-05-02 17:20:00,
2013-05-02 10:30:00,54.4,41.2,30.41,WNW,285,1.0,2.0,61,0.00,,,0.00,Wunderground PWS Mod,2013-05-02 17:30:00,
2013-05-02 10:40:00,55.0,41.4,30.41,WNW,302,1.0,3.0,60,0.00,,,0.00,Wunderground PWS Mod,2013-05-02 17:40:00,
2013-05-02 10:50:00,55.7,41.1,30.41,WNW,288,1.0,3.0,58,0.00,,,0.00,Wunderground PWS Mod,2013-05-02 17:50:00,
2013-05-02 10:59:00,56.3,41.7,30.41,West,280,0.0,3.0,58,0.00,,,0.00,Wunderground PWS Mod,2013-05-02 17:59:00,
2013-05-02 11:10:00,57.0,41.4,30.39,WSW,251,0.0,4.0,56,0.00,,,0.00,Wunderground PWS Mod,2013-05-02 18:10:00,
2013-05-02 11:20:00,57.8,40.3,30.39,WNW,294,1.0,5.0,52,0.00,,,0.00,Wunderground PWS Mod,2013-05-02 18:20:00,
2013-05-02 11:29:00,59.2,40.0,30.39,NW,315,1.0,4.0,49,0.00,,,0.00,Wunderground PWS Mod,2013-05-02 18:29:00,
2013-05-02 11:40:00,60.9,38.8,30.38,WNW,290,1.0,4.0,44,0.00,,,0.00,Wunderground PWS Mod,2013-05-02 18:40:00,
2013-05-02 11:50:00,62.1,38.1,30.38,West,277,1.0,3.0,41,0.00,,,0.00,Wunderground PWS Mod,2013-05-02 18:50:00,
2013-05-02 11:59:00,62.7,38.6,30.38,NW,306,1.0,4.0,41,0.00,,,0.00,Wunderground PWS Mod,2013-05-02 18:59:00,
2013-05-02 12:09:00,63.2,35.8,30.38,WNW,294,1.0,2.0,36,0.00,,,0.00,Wunderground PWS Mod,2013-05-02 19:09:00,
2013-05-02 12:19:00,63.5,36.7,30.37,West,272,1.0,3.0,37,0.00,,,0.00,Wunderground PWS Mod,2013-05-02 19:19:00,
2013-05-02 12:29:00,64.3,36.8,30.37,SSW,195,1.0,3.0,36,0.00,,,0.00,Wunderground PWS Mod,2013-05-02 19:29:00,
2013-05-02 12:40:00,65.5,40.5,30.37,WNW,288,1.0,4.0,40,0.00,,,0.00,Wunderground PWS Mod,2013-05-02 19:40:00,
2013-05-02 12:50:00,65.2,41.5,30.36,West,272,1.0,3.0,42,0.00,,,0.00,Wunderground PWS Mod,2013-05-02 19:50:00,
2013-05-02 13:00:00,65.6,43.7,30.36,NW,312,1.0,4.0,45,0.00,,,0.00,Wunderground PWS Mod,2013-05-02 20:00:00,
2013-05-02 13:10:00,65.8,40.8,30.36,NW,313,1.0,2.0,40,0.00,,,0.00,Wunderground PWS Mod,2013-05-02 20:10:00,
2013-05-02 13:20:00,65.8,42.1,30.36,NW,311,1.0,4.0,42,0.00,,,0.00,Wunderground PWS Mod,2013-05-02 20:20:00,
2013-05-02 13:30:00,65.6,41.9,30.36,WNW,299,1.0,4.0,42,0.00,,,0.00,Wunderground PWS Mod,2013-05-02 20:30:00,
2013-05-02 13:40:00,65.6,40.6,30.35,WNW,300,1.0,4.0,40,0.00,,,0.00,Wunderground PWS Mod,2013-05-02 20:40:00,
2013-05-02 13:50:00,66.1,42.3,30.35,NNW,332,1.0,4.0,42,0.00,,,0.00,Wunderground PWS Mod,2013-05-02 20:50:00,
2013-05-02 13:59:00,65.5,39.9,30.35,WNW,300,1.0,4.0,39,0.00,,,0.00,Wunderground PWS Mod,2013-05-02 20:59:00,
2013-05-02 14:09:00,65.3,41.0,30.35,NW,309,1.0,5.0,41,0.00,,,0.00,Wunderground PWS Mod,2013-05-02 21:09:00,
2013-05-02 14:19:00,65.6,39.3,30.35,WNW,289,1.0,4.0,38,0.00,,,0.00,Wunderground PWS Mod,2013-05-02 21:19:00,
2013-05-02 14:29:00,65.8,40.1,30.35,WNW,288,1.0,2.0,39,0.00,,,0.00,Wunderground PWS Mod,2013-05-02 21:29:00,
2013-05-02 14:39:00,66.0,41.0,30.34,WNW,302,0.0,3.0,40,0.00,,,0.00,Wunderground PWS Mod,2013-05-02 21:39:00,
2013-05-02 14:49:00,65.8,41.4,30.34,WNW,290,1.0,3.0,41,0.00,,,0.00,Wunderground PWS Mod,2013-05-02 21:49:00,
2013-05-02 14:59:00,65.6,43.7,30.34,WNW,300,1.0,3.0,45,0.00,,,0.00,Wunderground PWS Mod,2013-05-02 21:59:00,
2013-05-02 15:09:00,65.6,43.1,30.34,NW,304,1.0,5.0,44,0.00,,,0.00,Wunderground PWS Mod,2013-05-02 22:09:00,
2013-05-02 15:19:00,65.8,40.8,30.34,NW,305,1.0,2.0,40,0.00,,,0.00,Wunderground PWS Mod,2013-05-02 22:19:00,
2013-05-02 15:30:00,65.3,42.2,30.34,NW,308,1.0,2.0,43,0.00,,,0.00,Wunderground PWS Mod,2013-05-02 22:30:00,
2013-05-02 15:39:00,64.8,41.8,30.34,NW,315,1.0,7.0,43,0.00,,,0.00,Wunderground PWS Mod,2013-05-02 22:39:00,
2013-05-02 15:49:00,64.0,41.6,30.34,WNW,300,1.0,4.0,44,0.00,,,0.00,Wunderground PWS Mod,2013-05-02 22:49:00,
2013-05-02 15:59:00,63.9,42.1,30.34,WNW,300,1.0,4.0,45,0.00,,,0.00,Wunderground PWS Mod,2013-05-02 22:59:00,
2013-05-02 16:10:00,63.2,43.2,30.34,WNW,296,1.0,4.0,48,0.00,,,0.00,Wunderground PWS Mod,2013-05-02 23:10:00,
2013-05-02 16:20:00,63.2,43.7,30.34,WNW,296,0.0,3.0,49,0.00,,,0.00,Wunderground PWS Mod,2013-05-02 23:20:00,
2013-05-02 16:30:00,63.1,42.5,30.34,WNW,290,1.0,4.0,47,0.00,,,0.00,Wunderground PWS Mod,2013-05-02 23:30:00,
2013-05-02 16:39:00,62.9,43.4,30.34,WNW,290,1.0,2.0,49,0.00,,,0.00,Wunderground PWS Mod,2013-05-02 23:39:00,
2013-05-02 16:49:00,62.7,43.3,30.33,WNW,298,0.0,1.0,49,0.00,,,0.00,Wunderground PWS Mod,2013-05-02 23:49:00,
2013-05-02 17:00:00,62.6,43.7,30.33,WNW,302,0.0,3.0,50,0.00,,,0.00,Wunderground PWS Mod,2013-05-03 00:00:00,
2013-05-02 17:10:00,62.4,43.0,30.33,WNW,302,0.0,1.0,49,0.00,,,0.00,Wunderground PWS Mod,2013-05-03 00:10:00,
2013-05-02 17:19:00,62.1,42.7,30.33,WNW,301,0.0,3.0,49,0.00,,,0.00,Wunderground PWS Mod,2013-05-03 00:19:00,
2013-05-02 17:29:00,61.8,40.8,30.33,WNW,300,1.0,2.0,46,0.00,,,0.00,Wunderground PWS Mod,2013-05-03 00:29:00,
2013-05-02 17:40:00,61.5,41.6,30.34,WNW,292,0.0,2.0,48,0.00,,,0.00,Wunderground PWS Mod,2013-05-03 00:40:00,
2013-05-02 17:50:00,61.3,42.0,30.33,WNW,292,0.0,1.0,49,0.00,,,0.00,Wunderground PWS Mod,2013-05-03 00:50:00,
2013-05-02 18:00:00,61.0,41.7,30.33,WNW,292,0.0,0.0,49,0.00,,,0.00,Wunderground PWS Mod,2013-05-03 01:00:00,
2013-05-02 18:10:00,60.7,40.9,30.33,WNW,292,0.0,2.0,48,0.00,,,0.00,Wunderground PWS Mod,2013-05-03 01:10:00,
2013-05-02 18:20:00,60.4,41.1,30.34,WNW,292,0.0,2.0,49,0.00,,,0.00,Wunderground PWS Mod,2013-05-03 01:20:00,
2013-05-02 18:30:00,60.2,38.2,30.34,WNW,292,0.0,1.0,44,0.00,,,0.00,Wunderground PWS Mod,2013-05-03 01:30:00,
2013-05-02 18:40:00,60.1,39.8,30.33,WNW,292,0.0,1.0,47,0.00,,,0.00,Wunderground PWS Mod,2013-05-03 01:40:00,
2013-05-02 18:50:00,59.9,38.5,30.33,WNW,292,0.0,0.0,45,0.00,,,0.00,Wunderground PWS Mod,2013-05-03 01:50:00,
2013-05-02 18:59:00,59.6,38.2,30.33,WNW,292,0.0,1.0,45,0.00,,,0.00,Wunderground PWS Mod,2013-05-03 01:59:00,
2013-05-02 19:09:00,59.2,38.4,30.33,West,281,0.0,0.0,46,0.00,,,0.00,Wunderground PWS Mod,2013-05-03 02:09:00,
2013-05-02 19:19:00,58.7,39.0,30.34,West,281,0.0,1.0,48,0.00,,,0.00,Wunderground PWS Mod,2013-05-03 02:19:00,
2013-05-02 19:29:00,58.3,39.2,30.34,WNW,287,0.0,4.0,49,0.00,,,0.00,Wunderground PWS Mod,2013-05-03 02:29:00,
2013-05-02 19:39:00,57.6,39.6,30.33,WNW,287,0.0,0.0,51,0.00,,,0.00,Wunderground PWS Mod,2013-05-03 02:39:00,
2013-05-02 19:49:00,57.2,39.7,30.33,WNW,288,0.0,2.0,52,0.00,,,0.00,Wunderground PWS Mod,2013-05-03 02:49:00,
2013-05-02 19:59:00,56.6,40.1,30.33,WNW,288,0.0,0.0,54,0.00,,,0.00,Wunderground PWS Mod,2013-05-03 02:59:00,
2013-05-02 20:10:00,56.0,40.1,30.33,WNW,288,0.0,0.0,55,0.00,,,0.00,Wunderground PWS Mod,2013-05-03 03:10:00,
2013-05-02 20:20:00,55.6,40.1,30.33,WNW,288,0.0,2.0,56,0.00,,,0.00,Wunderground PWS Mod,2013-05-03 03:20:00,
2013-05-02 20:30:00,55.1,39.7,30.33,WNW,288,0.0,0.0,56,0.00,,,0.00,Wunderground PWS Mod,2013-05-03 03:30:00,
2013-05-02 20:40:00,54.7,39.8,30.33,WNW,288,0.0,0.0,57,0.00,,,0.00,Wunderground PWS Mod,2013-05-03 03:40:00,
2013-05-02 20:50:00,54.2,39.3,30.33,WNW,288,0.0,0.0,57,0.00,,,0.00,Wunderground PWS Mod,2013-05-03 03:50:00,
2013-05-02 21:00:00,53.8,38.9,30.33,WNW,288,0.0,0.0,57,0.00,,,0.00,Wunderground PWS Mod,2013-05-03 04:00:00,
2013-05-02 21:10:00,53.2,38.4,30.33,WNW,288,0.0,0.0,57,0.00,,,0.00,Wunderground PWS Mod,2013-05-03 04:10:00,
2013-05-02 21:20:00,52.8,38.0,30.33,WNW,288,0.0,1.0,57,0.00,,,0.00,Wunderground PWS Mod,2013-05-03 04:20:00,
2013-05-02 21:30:00,52.2,37.9,30.33,WNW,288,0.0,0.0,58,0.00,,,0.00,Wunderground PWS Mod,2013-05-03 04:30:00,
2013-05-02 21:40:00,51.9,38.0,30.33,WNW,288,0.0,0.0,59,0.00,,,0.00,Wunderground PWS Mod,2013-05-03 04:40:00,
2013-05-02 21:50:00,51.4,37.5,30.33,WNW,288,0.0,0.0,59,0.00,,,0.00,Wunderground PWS Mod,2013-05-03 04:50:00,
2013-05-02 22:00:00,51.1,37.7,30.33,WNW,288,0.0,0.0,60,0.00,,,0.00,Wunderground PWS Mod,2013-05-03 05:00:00,
2013-05-02 22:09:00,50.8,37.8,30.32,WNW,289,0.0,0.0,61,0.00,,,0.00,Wunderground PWS Mod,2013-05-03 05:09:00,
2013-05-02 22:19:00,50.4,37.9,30.32,WNW,288,0.0,0.0,62,0.00,,,0.00,Wunderground PWS Mod,2013-05-03 05:19:00,
2013-05-02 22:29:00,50.1,38.0,30.32,WNW,288,0.0,0.0,63,0.00,,,0.00,Wunderground PWS Mod,2013-05-03 05:29:00,
2013-05-02 22:39:00,49.8,38.1,30.32,WNW,288,0.0,0.0,64,0.00,,,0.00,Wunderground PWS Mod,2013-05-03 05:39:00,
2013-05-02 22:49:00,49.4,37.7,30.32,WNW,288,0.0,0.0,64,0.00,,,0.00,Wunderground PWS Mod,2013-05-03 05:49:00,
2013-05-02 22:59:00,49.1,37.8,30.32,WNW,288,0.0,0.0,65,0.00,,,0.00,Wunderground PWS Mod,2013-05-03 05:59:00,
2013-05-02 23:09:00,48.6,37.7,30.32,WNW,288,0.0,1.0,66,0.00,,,0.00,Wunderground PWS Mod,2013-05-03 06:09:00,
2013-05-02 23:10:00,47.3,39.1,30.33,N/A,-737280,0.0,0.0,73,0.00,,,0.00,Wunderground PWS Mod,2013-05-03 06:10:00,
2013-05-02 23:19:00,48.3,37.8,30.32,WNW,288,0.0,0.0,67,0.00,,,0.00,Wunderground PWS Mod,2013-05-03 06:19:00,
2013-05-02 23:29:00,48.0,38.3,30.32,WNW,288,0.0,0.0,69,0.00,,,0.00,Wunderground PWS Mod,2013-05-03 06:29:00,
2013-05-02 23:39:00,47.7,38.8,30.32,WNW,288,0.0,1.0,71,0.00,,,0.00,Wunderground PWS Mod,2013-05-03 06:39:00,
2013-05-02 23:49:00,47.6,39.0,30.32,WNW,288,0.0,0.0,72,0.00,,,0.00,Wunderground PWS Mod,2013-05-03 06:49:00,